Regional Weather Roundup
Issued by NWS Goodland, KS

Home | Current Version | Previous Version | Graphics & Text | Print | Product List | Glossary On
Versions: 1 2 3 4 5 6 7 8 9 10 11 12 13 14 15 16 17 18 19 20 21 22 23 24 25 26 27 28 29 30 31 32 33 34 35 36 37 38 39 40 41 42 43 44 45 46 47 48 49 50
000
ASUS43 KGLD 280559
RWRGLD

GOODLAND FORECAST AREA HOURLY WEATHER ROUNDUP
NATIONAL WEATHER SERVICE GOODLAND KS
1200 AM MDT SUN MAY 28 2017

...OFFICIAL OBSERVATIONS...

CITY           SKY/WX    TMP DP  RH WIND       PRES   REMARKS
GOODLAND KS    CLEAR     50  47  89 NW10      30.15S
HILL CITY KS   PTCLDY    56  52  86 NW10      30.06F
IMPERIAL NEB   CLEAR     51  43  74 W7        30.12S
MCCOOK NEB     CLEAR     52  51  97 SW5       30.08F
AKRON CO       CLEAR     46  42  86 W13       30.21S
BURLINGTON CO  CLEAR     49  45  86 NW10      30.18F
LIMON CO       CLEAR     42  40  92 W8        30.25F
$$

...UNOFFICIAL OBSERVATIONS...

CITY           SKY/WX    TMP DP  RH WIND       PRES   REMARKS
LENORA KS        N/A     53  32  45 MISG        N/A
NORTON KS      CLEAR     54  48  82 W10       30.06F
SHARON SPRINGS   N/A     50  48  92 W7          N/A
TRENTON NEB      N/A     56  32  40 NW5         N/A
$$




USA.gov is the U.S. government's official web portal to all federal, state and local government web resources and services.